Regional Weather Roundup
Issued by NWS

Home | Current Version | Previous Version | Text Only | Print | Product List | Glossary On
Versions: 1 2 3 4 5 6 7 8 9 10 11 12 13 14 15 16 17 18 19 20 21 22 23 24 25 26 27 28 29 30 31 32 33 34 35 36 37 38 39 40 41 42 43 44 45 46 47 48 49 50
376
ASUS43 KDTX 200101
RWRMI
MICHIGAN HOURLY REGIONAL WEATHER ROUNDUP
NATIONAL WEATHER SERVICE DETROIT/PONTIAC MI
800 PM EST MON FEB 19 2018

NOTE: "FAIR" INDICATES FEW OR NO CLOUDS BELOW 12,000 FEET WITH NO
SIGNIFICANT WEATHER AND/OR OBSTRUCTION TO VISIBILITY.

MIZ047>049-052>055-059>063-066>070-074>076-081>083-200200-
SOUTHEAST LOWER MICHIGAN

CITY           SKY/WX    TMP DP  RH WIND       PRES   REMARKS
ADRIAN         LGT RAIN  52  51  97 W8        29.98R
ALMA           LGT RAIN  37  37 100 E5        29.91S WCI  33
ANN ARBOR      LGT RAIN  51  51 100 S7        29.95R
BAD AXE        LGT SNOW  36  36 100 CALM      29.95F
CARO           RAIN      37  37 100 E5        29.93F WCI  33
DETROIT CITY   CLOUDY    56  54  93 SW12      29.95R
DETROIT        CLOUDY    54  53  97 SW15      29.96R
FLINT          CLOUDY    51  51 100 SW12      29.90S FOG
GROSSE ILE     FOG       44  43  99 S9        29.96R VSB 1/4
HILLSDALE      RAIN      55  52  88 SW13G21   29.96R
HOWELL         LGT RAIN  54  54  98 SW9G17    29.91S

CITY           SKY/WX    TMP DP  RH WIND       PRES   REMARKS
JACKSON        RAIN      57  55  93 S21G35    29.90F
LAMBERTVILLE   CLOUDY    60  55  81 W13G21    29.97R
LANSING        LGT RAIN  53  53 100 SW12      29.89R FOG
LAPEER         FOG       47  46  99 SW7       29.91R VSB 3/4
MASON          DRIZZLE   55  52  89 SW8       29.91S
MT. CLEMENS    LGT RAIN  54  54 100 SW15      29.92S
PONTIAC        DRIZZLE   54  54 100 SW13      29.92R FOG
PORT HOPE        N/A     34  32  92 E7        29.94F WCI  28
PORT HURON     LGT RAIN  48  48 100 S8        29.93S VSB 1/2
TRI CITIES     LGT RAIN  38  37  97 VRB5      29.93S FOG     WCI  34
MIDLAND        LGT RAIN  37  37 100 NE6       29.92S WCI  33
TROY           CLOUDY    55  54  97 SW8       29.95R
SAGINAW HB     LGT SNOW  36  36 100 E5        29.93S WCI  32
$$
MIZ043>046-050>051-056>058-064>065-071>073-077>080-200200-
SOUTHWEST LOWER MICHIGAN

CITY           SKY/WX    TMP DP  RH WIND       PRES   REMARKS
BATTLE CREEK   CLOUDY    54  53  97 SW20G25   29.90S
BENTON HARBOR  CLOUDY    56  53  90 S15       29.87S
BIG RAPIDS     LGT SNOW  37  35  91 E5        29.89R WCI  33
COLDWATER      RAIN      55  55 100 SW14G23   29.94S
FREMONT        HVY RAIN  38  36  92 E6        29.85S VSB 1   WCI  33
HOLLAND        CLOUDY    58  53  84 SW21G36   29.84S
GRAND RAPIDS   LGT RAIN  41  39  93 E7        29.87F VSB 1
IONIA          DRIZZLE   38  38 100 NE3       29.89S
KALAMAZOO      CLOUDY    53  51  93 S16       29.90S
LUDINGTON      CLOUDY    38  37  99 E6        29.84F FOG     WCI  33
MARSHALL       LGT RAIN  55  54  98 SW12G22   29.90S
MOUNT PLEASANT LGT RAIN  38  37  95 NE5       29.90S WCI  35
MUSKEGON       LGT RAIN  40  39  97 E5        29.85R VSB 1
SOUTH HAVEN    CLOUDY    58  55  89 S15G28    29.86S
$$
MIZ016>042-200200-
NORTHERN LOWER MICHIGAN

CITY           SKY/WX    TMP DP  RH WIND       PRES   REMARKS
ALPENA         LGT RAIN  34  33  96 E9        29.99F FOG     WCI  27
BEAVER ISLAND  CLOUDY    33  32  93 E10G16    29.97R FOG     WCI  25
BELLAIRE       MIX PCPN  36  35  96 NE6       29.92F WCI  31
CADILLAC       CLOUDY    35  34  98 E10       29.87F FOG     WCI  27
CHARLEVOIX     CLOUDY    35  31  88 E10       29.97S WCI  27
FRANKFORT      CLOUDY    37  37  97 E3        29.89S FOG
GAYLORD        MIX PCPN  32  32 100 E6        29.92S FOG     WCI  26
GRAYLING       CLOUDY    34  33  98 E10       29.91S FOG     WCI  26
HARBOR SPRINGS CLOUDY    33  32  96 E14G20    29.95S WCI  23
HOUGHTON LAKE  CLOUDY    35  34  96 E8        29.93R WCI  29
MANISTEE       CLOUDY    37  36  96 E9        29.86S WCI  30
OSCODA         MIX PCPN  33  32  97 NE6       29.97F WCI  27
PELLSTON       CLOUDY    34  31  88 E10       29.98S WCI  26
ROGERS CITY    CLOUDY    33  32  96 E9        30.01F FOG     WCI  25
TRAVERSE CITY  LGT RAIN  35  34  96 CALM      29.90R FOG
$$
MIZ007>008-015-200200-
EASTERN UPPER MICHIGAN

CITY           SKY/WX    TMP DP  RH WIND       PRES   REMARKS
KINROSS        CLOUDY    25  20  81 NE16      29.99F WCI  12
MACKINAC ISLAN FLURRIES  33  31  93 E9G18     29.98F WCI  25
NEWBERRY       FLURRIES  22  22  98 NE15      29.99F WCI   9
S. S. MARIE    FLURRIES  23  15  71 E17G23    30.03S WCI   9
MUNISING         N/A     24  23  96 NE10      30.01F WCI  14
$$
MIZ004>006-011>014-085-200200-
CENTRAL UPPER MICHIGAN

CITY           SKY/WX    TMP DP  RH WIND       PRES   REMARKS
MANISTIQUE     LGT SNOW  26  24  94 N9        29.98R WCI  16
ESCANABA       FLURRIES  24  21  88 N12       29.96F WCI  13
MENOMINEE      FLURRIES  28  26  92 NE14      29.93F WCI  17
SAWYER-GWINN   LGT SNOW  21  19  93 NE15G21   29.97F WCI   8
$$
MIZ001>003-009>011-084-200200-
WESTERN UPPER MICHIGAN

CITY           SKY/WX    TMP DP  RH WIND       PRES   REMARKS
IRON MOUNTAIN  CLOUDY    23  18  81 NE6       29.92S WCI  16
HOUGHTON       LGT SNOW  17  11  77 NE12      30.05S WCI   4
COPPER HARBOR    N/A     19  14  81 E12G23    30.10S WCI   7
IRONWOOD       LGT SNOW  15  12  88 NE9       30.00R FOG     WCI   3
$$

ABBREVIATIONS USED IN REMARKS
   TC - TEMPERATURE IN CELSIUS
  WCI - WIND CHILL INDEX
   HX - HEAT INDEX
  VSB - VISIBILITY





USA.gov is the U.S. government's official web portal to all federal, state and local government web resources and services.